Regional Weather Roundup
Issued by NWS Grand Forks, ND

Home | Current Version | Previous Version | Graphics & Text | Print | Product List | Glossary Off
Versions: 1 2 3 4 5 6 7 8 9 10 11 12 13 14 15 16 17 18 19 20 21 22 23 24 25 26 27 28 29 30 31 32 33 34 35 36 37 38 39 40 41 42 43 44 45 46 47 48 49 50

000
ASUS43 KFGF 030331
RWRFGF
PRAIRIE TO PINES  WEATHER ROUNDUP
NATIONAL WEATHER SERVICE EASTERN NORTH DAKOTA/GRAND FORKS ND
1000 PM CDT TUE JUN 02 2015

 **SATELLITE DATA USED TO AUGMENT SKY COVER AT AUTOMATED STATIONS**
 *****  WEATHER ACROSS EASTERN NORTH DAKOTA  *****

CITY           SKY/WX    TMP DP  RH WIND       PRES   REMARKS
GRAND FORKS    CLOUDY    63  61  93 NE13      29.75S
GRAND FRKS AFB MOCLDY    61  60  95 NE10      29.76S
GRAND FRKS NWS   N/A     61 N/A N/A NE6         N/A
DEVILS LAKE    CLOUDY    61  55  82 NE14      29.76S
FARGO          CLOUDY    76  63  64 SE16      29.67F
WAHPETON ARPT  CLOUDY    75  57  53 S20G29    29.69F
$$

 ***** WEATHER ACROSS CENTRAL AND WESTERN NORTH DAKOTA  *****

CITY           SKY/WX    TMP DP  RH WIND       PRES   REMARKS
BISMARCK       PTCLDY    68  64  87 CALM      29.74S
MINOT          LGT RAIN  55  52  89 N22G32    29.82R
JAMESTOWN      CLOUDY    66  63  90 N15       29.69F
MINOT AFB      LGT RAIN  54  54 100 N22G31    29.82R
GARRISON         N/A     63  60  90 NE9       29.76R
WILLISTON      PTCLDY    56  52  86 NE15      29.88R
DICKINSON      CLOUDY    58  53  84 W16       29.81S
HETTINGER      MOCLDY    59  52  77 NW14      29.86R
$$

 *****  OTHER AIRPORT OBSERVATIONS IN OUR AREA  *****

CITY           SKY/WX    TMP DP  RH WIND       PRES   REMARKS
WALHALLA       FAIR      59  59 100 MISG      29.82R
GRAFTON AIRPOR CLOUDY    61  61 100 NE12      29.78F
VALLEY CITY AR FAIR      66  66 100 NE7       29.70S
CANDO          CLOUDY    59  59 100 NE14G21   29.80S
CAVALIER APRT  LGT RAIN  61  61 100 N10       29.80S
GWINNER        NOT AVBL
ROLLA          CLOUDY    54  52  94 N15       29.84R
 ***** THE ABOVE OBSERVATIONS ARE NON NWS ARE NOT QUALITY
       CONTROLLED AND MAY MIS-REPORT RAIN FOR SNOW...
$$

  *****  WEATHER ACROSS NORTHERN MINNESOTA  *****

CITY           SKY/WX    TMP DP  RH WIND       PRES   REMARKS
FLAG ISLAND    LGT RAIN  59  57  94 E5        29.81S
WARROAD        RAIN      59  55  88 E8        29.82F
ROSEAU         LGT RAIN  61  55  82 E5        29.82F
HALLOCK        CLOUDY    61  61 100 NE9       29.80S
THF RVR FALLS  CLOUDY    63  59  88 NE18      29.79R
BAUDETTE       CLOUDY    60  58  92 E3        29.85R
WASKISH        LGT RAIN  63  57  82 CALM      29.82R
CROOKSTON      MOCLDY    64  63  94 NE10G18   29.76R
STEPHEN NDAWN    N/A     61  61 100 NE8         N/A
GREENBUSH NDAW   N/A     61  61 100 E5          N/A
$$
  *****  WEATHER ACROSS CENTRAL AND WEST MINNESOTA  *****

CITY           SKY/WX    TMP DP  RH WIND       PRES   REMARKS
FOSSTON        CLOUDY    64  57  77 SE8       29.75S
BEMIDJI        PTCLDY    64  54  70 SE10      29.80S
PARK RAPIDS    MOCLDY    68  54  60 SE14      29.78F
ELBOW LAKE     FAIR      71  58  64 SE16      29.77F
WADENA         MOCLDY    70  54  56 S17       29.79F
DETROIT LAKES  CLOUDY    72  57  60 S14G21    29.77R
MOORHEAD       CLOUDY    73  63  68 SE16      29.70S
FERGUS FALLS   MOCLDY    73  57  56 S21       29.74F
MORRIS MN      PTCLDY    72  59  64 SE13      29.78S
STAPLES        CLOUDY    68  52  56 SE8       29.82F
$$
  *****  WEATHER ELSEWHERE ACROSS MINNESOTA  *****

CITY           SKY/WX    TMP DP  RH WIND       PRES   REMARKS
DULUTH         LGT RAIN  54  43  66 E7        29.94S
INTRNTL FALLS  CLOUDY    59  56  89 SE9       29.85F
ELY            CLOUDY    64  48  55 S5        29.91R
CLOQUET        CLOUDY    52  45  76 E3        29.93R
WHEATON        PTCLDY    72  61  68 SE15G21   29.76F
BRAINERD       MOCLDY    67  54  63 SE8       29.87R
HIBBING        CLOUDY    65  54  67 VRB6      29.89S
ALEXANDRIA     MOCLDY    70  56  61 SE13      29.84R
SAINT CLOUD    PTCLDY    68  52  56 SE9       29.87R
MINNEAPOLIS    PTCLDY    69  52  54 SE12      29.90F
$$

  *****  WEATHER ACROSS SOUTH DAKOTA  *****

CITY           SKY/WX    TMP DP  RH WIND       PRES   REMARKS
SIOUX FALLS    CLOUDY    72  61  68 S18G26    29.83R
BROOKINGS      MOCLDY    72  61  68 S15G21    29.81R
WATERTOWN      MOCLDY    72  61  68 S12       29.77S
HURON          MOCLDY    76  61  59 S13G21    29.74R
SISSETON         N/A     74  62  66 S15       29.72S
ABERDEEN       PTCLDY    77  64  64 S9        29.69R
MITCHELL       MOCLDY    75  63  66 S12       29.76R
PIERRE         CLOUDY    74  59  59 N16       29.71F
MOBRIDGE       MOCLDY    71  62  73 NW8       29.71R
RAPID CITY     MOCLDY    61  58  90 NW7       29.85R
$$

  *****  SOME WEATHER IN NEARBY STATES *****

CITY           SKY/WX    TMP DP  RH WIND       PRES   REMARKS
GLASGOW MT     CLOUDY    59  50  72 NE7       29.93S
GREAT FALLS MT CLOUDY    55  52  89 E7        29.95R
CHEYENNE WY    PTCLDY    62  50  64 N7        29.98R
SCOTTSBLUFF NE PTCLDY    66  49  54 SE5       29.83S
OMAHA NE       PTCLDY    67  58  72 SE14      29.91R
DES MOINES IA  CLOUDY    66  55  67 S12       29.97S
DAVENPORT IA   PTCLDY    63  51  65 S6        30.04R
CHICAGO IL     MOCLDY    57  45  64 E6        30.10R
EAU CLAIRE WI  PTCLDY    64  49  57 SE7       29.98R
LA CROSSE WI   PTCLDY    65  49  56 S7        29.99S
$$

  *****  SOME NATIONAL WEATHER *****

CITY           SKY/WX    TMP DP  RH WIND       PRES   REMARKS
LA GUARDIA NY  LGT RAIN  54  49  83 NE7       30.19R
RALEIGH NC     CLOUDY    68  66  94 SW8       30.02R
ATLANTA GA     MOCLDY    73  59  61 CALM      29.98R
NEW ORLEANS LA PTCLDY    81  61  50 CALM      29.93R
OKLAHOMA CITY  PTCLDY    75  66  73 S9        29.91R
ALBUQUERQUE NM CLEAR     83  22  10 CALM      29.98S
SALT LAKE CITY MOCLDY    72  49  44 N7        29.90S
LOS ANGELES CA PTCLDY    62  58  86 W9        29.94R
BOISE ID       MOCLDY    68  43  40 CALM      29.93R
SEATTLE WA     CLOUDY    58  50  75 S9        30.06S
$$

*** WEATHER ACROSS MANITOBA...SASKATCHEWAN AND ONTARIO ***
                ***ONTARIO***

CITY           SKY/WX    TMP DP  RH WIND       PRES   REMARKS
GERALDTON      MOCLDY    55  27  33 SW12      29.97F
THUNDER BAY    CLOUDY    52  39  62 E7        29.96F
SIOUX LOOKOUT  LGT RAIN  55  55 100 SE3       29.88F FOG
TORONTO        CLEAR     54  43  66 E3        30.20S
BIG TROUT LK   CLEAR     54  37  54 N7        29.81R
PICKLE LAKE    NOT AVBL
DRYDEN         LGT RAIN  55  55 100 E3        29.87S FOG
KENORA         CLOUDY    57  57 100 SE10      29.84F
$$
                *** MANITOBA***

CITY           SKY/WX    TMP DP  RH WIND       PRES   REMARKS
BRANDON        CLOUDY    57  43  58 NE12      29.90R
DAUPHIN        CLOUDY    57  36  44 N6        29.94R
ISLAND LAKE    PTCLDY    55  32  41 NW6       29.88R
PILOT MOUND      N/A     55  48  76 NE10        N/A
THE PAS        PTCLDY    55  30  38 NW6       29.96R
THOMPSON       PTCLDY    48  30  49 NW6       29.91R
WINNIPEG       CLOUDY    59  32  36 NE15      29.88R
LYNN LAKE      CLEAR     48  28  46 NW9G18    29.95R
CHURCHILL      LGT RAIN  37  36  93 NW21G30   29.65R FOG
GILLAM         MOCLDY    46  36  66 W14G23    29.82R
$$
                ***SASKATCHEWAN***

CITY           SKY/WX    TMP DP  RH WIND       PRES   REMARKS
ESTEVAN        LGT RAIN  54  52  94 NE8       29.91R
KINDERSLEY     CLOUDY    59  32  36 E9        29.98S
LLOYDMINSTER   CLOUDY    57  34  41 SE13      29.98S
PRINCE ALBERT  MOCLDY    54  32  43 CALM      29.98R
REGINA         MOCLDY    59  36  41 NE6       29.95R
YORKTON        CLEAR     57  41  54 SE6       29.93S
N. BATTLEFORD  PTCLDY    54  36  50 E6        30.01S
LA RONGE       PTCLDY    57  34  41 S5        29.99R
SASKATOON      MOCLDY    55  32  41 N6        30.00R
SWIFT CURRENT  CLOUDY    55  36  47 SE2       29.98R
$$
NOTE: THESE ARE AUTOMATED STATIONS WITH LIMITED QUALITY CONTROL
      "FAIR" INDICATES FEW OR NO CLOUDS BELOW 12,000 FEET WITH NO
      SIGNIFICANT WEATHER AND/OR OBSTRUCTIONS TO VISIBILITY.
      SKY/WX - SKY CONDITION AND SIGNIFICANT WEATHER.
      TMP - AIR TEMPERATURE.    DP   - DEWPOINT TEMPERATURE.
      RH  - RELATIVE HUMIDITY.  PRES - PRESSURE.
      HX  - HEAT INDEX.         WCI  - WIND CHILL INDEX.
$


USA.gov is the U.S. government's official web portal to all federal, state and local government web resources and services.